Regional Weather Roundup
Issued by NWS Charleston, SC

Current Version | Previous Version | Text Only | Print | Product List | Glossary Off
Versions: 1 2 3 4 5 6 7 8 9 10 11 12 13 14 15 16 17 18 19 20 21 22 23 24 25 26 27 28 29 30 31 32 33 34 35 36 37 38 39 40 41 42 43 44 45 46 47 48 49 50

000
ASUS42 KCHS 282313
RWRCHS

REGIONAL WEATHER ROUNDUP
NATIONAL WEATHER SERVICE CHARLESTON SC
700 PM EDT SAT MAY 28 2016

NOTE: "FAIR" INDICATES FEW OR NO CLOUDS BELOW 12,000 FEET WITH NO
SIGNIFICANT WEATHER AND/OR OBSTRUCTIONS TO VISIBILITY.

NOT ALL STATIONS ARE QUALITY CONTROLLED. USE DATA WITH CAUTION...
ESPECIALLY DEWPOINT OBSERVATIONS.

SCZ027-030-031-034>040-042>050-290000-
...SOUTHEAST SOUTH CAROLINA...

CITY           SKY/WX    TMP DP  RH WIND       PRES   REMARKS
N CHARLESTON   RAIN      70  68  93 N12       30.07F FOG
WATERFRONT PRK   N/A     70  70 100 N10       30.04F
MOUNT PLEASANT CLOUDY    70  70 100 N10       30.06S
JOHNS ISLAND   RAIN      72  70  94 N12       30.05F
PINOPOLIS      NOT AVBL
MONCKS CORNER  HVY RAIN  66  64  94 N6        30.09R
SUMMERVILLE    RAIN      70  70 100 N9        30.09
BEAUFORT MCAS  RAIN      70  67  90 NE12      30.06F FOG
BEAUFORT ARPT  RAIN      70  68  94 NE20      30.06S
HILTON HEAD IS RAIN      70  68  94 N12G25    30.06F
WALTERBORO     RAIN      70  70 100 NE6       30.09S
ALLENDALE      FAIR      68  64  88 VRB6      30.09S

...SOUTHERN MIDLANDS AND PEE DEE...

CITY           SKY/WX    TMP DP  RH WIND       PRES   REMARKS
GEORGETOWN     NOT AVBL
KINGSTREE      RAIN      70  68  94 CALM      30.10F
ORANGEBURG     LGT RAIN  71  67  87 E3        30.11S
BARNWELL       FAIR      75  66  73 E8        30.11R
AIKEN          FAIR      77  64  65 N9        30.13S
MANNING        RAIN      66  64  94 CALM      30.10F
COLUMBIA       LGT RAIN  74  69  85 NE7       30.11R
SUMTER         CLOUDY    73  69  87 SE7       30.09S
FLORENCE       LGT RAIN  73  69  87 SE5       30.11S
MYRTLE BEACH   CLOUDY    73  66  78 N7        30.09F
N MYRTLE BEACH LGT RAIN  76  71  85 N5        30.07F

$$

GAZ063-065-086>088-099>101-113>116-118-119-134>141-150-290000-
...SOUTHEAST GEORGIA...

CITY           SKY/WX    TMP DP  RH WIND       PRES   REMARKS
SAVANNAH ARPT  CLOUDY    72  66  81 NE18G28   30.05S
HUNTER AAF     CLOUDY    72  68  88 N8G23     30.02F
FORT STEWART   CLOUDY    73  66  78 CALM      30.04R
STATESBORO     CLOUDY    76  68  77 NE6       30.07F
SYLVANIA       CLOUDY    76  63  64 E9G16     30.09S
CLAXTON        FAIR      76  66  70 NE10      30.06S

...CSRA...CENTRAL AND FAR SOUTHEAST GEORGIA...

CITY           SKY/WX    TMP DP  RH WIND       PRES   REMARKS
THOMSON        CLOUDY    80  70  70 NE5       30.14F
AUGUSTA-BUSH   CLOUDY    74  72  93 CALM      30.08S
AUGUSTA-DANIEL CLOUDY    79  68  69 CALM      30.09F
SWAINSBORO     CLOUDY    73  72  94 CALM      30.09S
VIDALIA        PTSUNNY   81  68  65 E13       30.06F
EASTMAN        FAIR      85  65  51 E8        30.07S
HAZLEHURST     FAIR      86  64  48 NE10G16   30.03F
ALMA           SUNNY     85  65  51 N8        30.02S
WAYCROSS       MOSUNNY   84  66  54 NE12G17   30.02S
JESUP          FAIR      72  64  78 E13       30.05R
BAXLEY         FAIR      86  63  45 NE12      30.03S
BRUNSWICK      CLOUDY    79  70  73 NE10G20   30.04S
SAINT SIMONS   CLOUDY    75  68  78 NE15G24   30.02S

$$

SCZ027-028-034-036>038-045-046-048>050-GAZ119-141-290000-
...LAKE AND SUPPLEMENTAL COASTAL OBSERVATIONS...

STATION/POSITION TIME  TEMP    WIND        PRES    WAVE   SWELL
                       AIR SEA DIR/SP/G            HT/PER HT/PER/DIR
                 (UTC) (F)     (DEG/KT/KT) (MB)    (FT/S) (FT/S/D)
WINYAH BAY       2145   69      10/  7     1018.0
LAKE MURRAY      2200   80      CALM  /  2 1018.3F
ACE BASIN NERRS  NOT AVBL
FORT PULASKI     2200           10/ 16/ 24   N/A
SAPELO ISLAND    2200   75      20/ 12     1017.0S

$$

ANZ835-935-AMZ111-154-330-350-352-354-370-450-454-472-290000-
...C-MAN AND BUOY OBSERVATIONS...

STATION/POSITION TIME  TEMP    WIND        PRES    WAVE   SWELL
                       AIR SEA DIR/SP/G            HT/PER HT/PER/DIR
                 (UTC) (F)     (DEG/KT/KT) (MB)    (FT/S) (FT/S/D)
BUOY 41004       2250   76 76   60/ 16/ 19 1015.3R   9/ 8   7/ 8
BUOY 41008       2250   73 76   20/ 21/ 23 1016.0R   7/ 6   3/ 90/ 9
FOLLY BEACH CMAN 2300   70     350/ 19/ 25 1017.2F
CAPERS NEARSHORE 2208   72 76   20/ 19/ 27 1017.1F
FRIPP NEARSHORE  2208   72 76   40/ 25/ 35 1016.9F


STATION/POSITION TIME  TEMP    WIND        PRES    WAVE   SWELL
                       AIR SEA DIR/SP/G            HT/PER HT/PER/DIR
                 (UTC) (F)     (DEG/KT/KT) (MB)    (FT/S) (FT/S/D)
5E ST. MARYS GA  2301      78                N/A     6/ 5   2/100/11
FRYING PAN BUOY  2200   77 76   50/ 19/ 23 1017.1F
BUOY 41025       2250   78 79  120/ 10/ 12 1020.2F   5/ 8   5/120/ 8
CAPE LOOKOUT NC  2200   76      50/ 11/ 13 1019.3F
BUOY 41002       2250   75 76  120/ 16/ 19 1017.9R   5/ 7   3/110/ 7
BUOY 41010       2220   79 79  250/  6/  8 1015.2R
ST AUGUSTINE FL  2300   76 80  360/ 18/ 19 1017.3R


$$




USA.gov is the U.S. government's official web portal to all federal, state and local government web resources and services.